Regional Weather Roundup
Issued by NWS

Home | Current Version | Previous Version | Text Only | Print | Product List | Glossary On
Versions: 1 2 3 4 5 6 7 8 9 10 11 12 13 14 15 16 17 18 19 20 21 22 23 24 25 26 27 28 29 30 31 32 33 34 35 36 37 38 39 40 41 42 43 44 45 46 47 48 49 50
000
ASCA42 TJSJ 280011
RWRPR
PUERTO RICO/U.S. VIRGIN ISLANDS HOURLY WEATHER ROUNDUP
NATIONAL WEATHER SERVICE SAN JUAN PR
800 PM AST THU NOV 27 2014

PRZ001-004-280100-
PUERTO RICO

CITY           SKY/WX    TMP DP  RH WIND       PRES   REMARKS
SAN JUAN LMM   CLEAR     79  72  78 E3        29.96R
PONCE          PTCLDY    79  70  73 NE6       29.90
AGUADILLA      PTCLDY    75  70  83 CALM      29.97R
CEIBA          CLEAR     73  70  88 NW3       29.98R
$$

PRZ006-007-280100-
U.S. VIRGIN ISLANDS

CITY           SKY/WX    TMP DP  RH WIND       PRES   REMARKS
CHARLOTTE AMA  CLEAR     75  70  83 CALM      29.95
$$

HOURLY WEATHER ROUNDUP FOR THE NEWS MEDIA

CITY           SKY/WX    TMP DP  RH WIND       PRES   REMARKS
MIAMI          CLEAR     68  48  48 VRB7      30.19R
ORLANDO        CLEAR     60  37  42 N9        30.23R
NEW YORK       MOCLDY    38  27  64 NW10      30.05R WCI  31
NEWARK         CLOUDY    36  29  75 W5        30.05R WCI  32
CHICAGO        CLOUDY    21  11  65 NW10      30.39R WCI  10
HARTFORD       LGT RAIN  35  33  92 N5        29.98R WCI  31
BOSTON         CLOUDY    34  28  79 N8        30.00R WCI  27
DALLAS         PTCLDY    55  21  26 CALM      30.41F
PHILADELPHIA   PTCLDY    37  27  67 W9        30.09R WCI  30


USA.gov is the U.S. government's official web portal to all federal, state and local government web resources and services.